Weather History for KMMT - August, 2014

Change the Weather History Date:

Saturday, August 30, 2014

  Actual Average Record
Temperature  
Mean Temperature 80 °F -  
Max Temperature 93 °F 85 °F 96 °F (1998)
Min Temperature 69 °F 68 °F 62 °F (2010)
Cooling Degree Days 16    
Growing Degree Days 30 (Base 50)    
Moisture  
Dew Point 69 °F    
Average Humidity 72    
Maximum Humidity 100    
Minimum Humidity 34    
Precipitation  
Precipitation 0.00 in - - ()
Sea Level Pressure  
Sea Level Pressure 30.15 in    
Wind  
Wind Speed 2 mph (SE)    
Max Wind Speed 10 mph    
Max Gust Speed -    
Visibility 10 miles    
Events      
Averages and records for this station are not official NWS values.
T = Trace of Precipitation, MM = Missing Value Source: NWS Daily Summary

Daily Weather History Graph

Daily Weather History Graph

Search for Another Location

Airport or City:

Trip Planner

Search our weather history database for the weather conditions in past years. The results will help you decide how hot, cold, wet, or windy it might be!

Date:

Astronomy

Aug. 30, 2014 Rise Set
Actual Time 6:55 AM EDT 7:51 PM EDT
Civil Twilight 6:29 AM EDT 8:17 PM EDT
Nautical Twilight 5:59 AM EDT 8:47 PM EDT
Astronomical Twilight 5:28 AM EDT 9:18 PM EDT
Moon 11:26 AM EDT 10:40 PM EDT
Length of Visible Light 13h 47m
Length of Day
12h 56m
Waxing Crescent, 23% of the Moon is Illuminated
Aug 30
Waxing Crescent
Sep 2
First Quarter
Sep 8
Full
Sep 15
Last Quarter
Sep 24
New

Hourly Weather History & Observations

Time (EDT) Temp. Heat Index Dew Point Humidity Pressure Visibility Wind Dir Wind Speed Gust Speed Precip Events Conditions
12:58 AM 73.8 °F - 71.8 °F 93% 30.15 in 10.0 mi Calm Calm - N/A   Clear
1:58 AM 72.0 °F - 71.4 °F 98% 30.15 in 10.0 mi Calm Calm - N/A   Clear
2:58 AM 71.1 °F - 70.9 °F 99% 30.15 in 7.0 mi Calm Calm - N/A   Clear
3:28 AM 69.8 °F - 69.8 °F 100% 30.15 in 3.0 mi Calm Calm - N/A   Partly Cloudy
3:58 AM 69.6 °F - 69.6 °F 100% 30.14 in 10.0 mi Calm Calm - N/A   Clear
4:58 AM 69.6 °F - 69.6 °F 100% 30.15 in 10.0 mi Calm Calm - N/A   Clear
5:58 AM 69.4 °F - 69.4 °F 100% 30.16 in 9.0 mi Calm Calm - N/A   Scattered Clouds
6:58 AM 71.1 °F - 71.1 °F 100% 30.17 in 8.0 mi Calm Calm - N/A   Partly Cloudy
7:58 AM 73.4 °F - 73.4 °F 100% 30.18 in 10.0 mi ENE 5.8 mph - N/A   Clear
8:58 AM 78.4 °F - 73.4 °F 84% 30.19 in 10.0 mi Calm Calm - N/A   Clear
9:58 AM 82.9 °F 89.4 °F 73.8 °F 74% 30.20 in 10.0 mi Calm Calm - N/A   Clear
10:58 AM 86.5 °F 90.7 °F 69.1 °F 56% 30.21 in 10.0 mi ESE 2.3 mph - N/A   Scattered Clouds
11:58 AM 86.7 °F 90.3 °F 68.4 °F 54% 30.20 in 10.0 mi East 6.9 mph - N/A   Scattered Clouds
12:58 PM 90.1 °F 93.1 °F 66.6 °F 46% 30.18 in 10.0 mi SE 5.8 mph - N/A   Partly Cloudy
1:58 PM 92.5 °F 92.2 °F 60.6 °F 34% 30.16 in 10.0 mi South 8.1 mph - N/A   Clear
2:58 PM 92.8 °F 93.1 °F 61.3 °F 35% 30.14 in 10.0 mi SSE 2.3 mph - N/A   Clear
3:58 PM 92.5 °F 94.6 °F 65.1 °F 40% 30.11 in 10.0 mi SSE 8.1 mph - N/A   Scattered Clouds
4:58 PM 92.7 °F 94.0 °F 63.5 °F 38% 30.10 in 10.0 mi SSE 10.4 mph - N/A   Clear
5:58 PM 91.8 °F 92.6 °F 62.6 °F 38% 30.09 in 10.0 mi SSE 8.1 mph - N/A   Clear
6:58 PM 88.9 °F 91.4 °F 66.2 °F 47% 30.09 in 10.0 mi SE 10.4 mph - N/A   Clear
7:58 PM 83.5 °F 86.4 °F 67.8 °F 59% 30.11 in 10.0 mi SE 8.1 mph - N/A   Clear
8:58 PM 78.6 °F - 68.0 °F 70% 30.13 in 10.0 mi SE 4.6 mph - N/A   Clear
9:58 PM 77.0 °F - 69.3 °F 77% 30.15 in 10.0 mi SE 4.6 mph - N/A   Clear
10:58 PM 75.7 °F - 70.0 °F 82% 30.16 in 10.0 mi ESE 3.5 mph - N/A   Clear
11:58 PM 75.2 °F - 70.7 °F 86% 30.16 in 10.0 mi SE 2.3 mph - N/A   Partly Cloudy